Weather in Rovdino

Russia / Arkhangel'skaya Oblast'     61°41′00″N   42°32′09″E
temp.,
°C
wind,
m/s
gust,
m/s
humid.,
%
clouds,
%
prec.,
mm/h
press.,
hPa
HPBL,
m
11 may, tue
tue1100:00+7ssw3967100 0.0 1027210
03:00+8ssw31266100 0.0 1027347
06:00+9ssw31066100 0.0 1027381
09:00+15ssw4851100 0.0 1027654
12:00+19sw584593 0.0 10271205
15:00+21sw584370 0.0 10261454
18:00+20sw47485 0.0 10271169
21:00+13sw377629 0.0 1027121
12 may, wed
wed1200:00+11ssw28868 0.0 1028152
03:00+10ssw259089 0.0 1029106
06:00+13sw277411 0.0 1029211
09:00+19sw344992 0.0 1029670
12:00+23sw333815 0.0 10281312
15:00+24ssw23355 0.0 10271616
18:00+23s23430 0.0 1026247
21:00+16sse226625 0.0 102617
13 may, thu
thu1300:00+13s22763 0.0 102738
03:00+11s22810 0.0 102738
06:00+14s25670 0.0 1027164
09:00+20s245030 0.0 1026526
12:00+24s354259 0.0 10241806
15:00+24ssw4544100 0.0 10231514
18:00+19ne12638 0.1 102292
21:00+17e1168100 0.1 102112
14 may, fri
fri1400:00+15ese126860 0.0 102019
03:00+13sse238384 0.0 101945
06:00+16sse397496 0.0 1018449
09:00+20sse4761100 0.1 10171208
12:00+17s377999 0.4 1016679
15:00+20ssw466058 0.8 10151208
18:00+18ssw3676100 1.3 1014725
21:00+14sw399458 1.8 1014441
15 may, sat
sat1500:00+14ssw399394 0.0 1014433
03:00+12ssw389714 0.0 1015230
06:00+13ssw278561 0.0 1015225
09:00+19ssw355416 0.0 1015760
12:00+23ssw354015 0.0 10141939
15:00+24s243888 0.0 10122087
18:00
21:00+16sw2392100 2.4 100990